Marysville, OH

5:55 AM EST on December 14, 2017 (GMT -0500)
Marysville

Weather History for KMRT - January, 2013

Change the Weather History Date:

Thursday, January 3, 2013

  Actual Average (KDLZ) Record (KDLZ)
Temperature  
Mean Temperature 14 °F -  
Max Temperature 29 °F 35 °F 59 °F (1939)
Min Temperature 0 °F 18 °F -4 °F (1979)
Degree Days  
Heating Degree Days 50    
Moisture  
Dew Point 10 °F    
Average Humidity 75    
Maximum Humidity 89    
Minimum Humidity 47    
Precipitation  
Precipitation 0.00 in - - ()
Sea Level Pressure  
Sea Level Pressure 30.19 in    
Wind  
Wind Speed 5 mph (WSW)    
Max Wind Speed 18 mph    
Max Gust Speed 25 mph    
Visibility 8 miles    
Events      
Averages and records for this station are not official NWS values.
T = Trace of Precipitation, MM = Missing Value Source: NWS Daily Summary

Daily Weather History Graph

Daily Weather History Graph

Search for Another Location

Airport or City:

Trip Planner

Search our weather history database for the weather conditions in past years. The results will help you decide how hot, cold, wet, or windy it might be!

Date:

Astronomy

Jan. 03, 2013 Rise Set
Actual Time 7:56 AM EST 5:20 PM EST
Civil Twilight 7:25 AM EST 5:50 PM EST
Nautical Twilight 6:51 AM EST 6:24 PM EST
Astronomical Twilight 6:18 AM EST 6:57 PM EST
Moon 11:55 PM EST (1/3) 11:06 AM EST (1/3)
Length of Visible Light 10h 25m
Length of Day
9h 24m
Waning Gibbous, 65% of the Moon is Illuminated
Jan 3
Waning Gibbous
Jan 4
Last Quarter
Jan 11
New
Jan 18
First Quarter
Jan 26
Full

Hourly Weather History & Observations

Time (EST) Temp. Windchill Dew Point Humidity Pressure Visibility Wind Dir Wind Speed Gust Speed Precip Events Conditions
12:06 AM 4.6 °F - 1.4 °F 86% 30.19 in 3.0 mi Calm Calm - N/A   Clear
12:26 AM 3.0 °F - -0.8 °F 84% 30.18 in 2.5 mi Calm Calm - N/A   Clear
12:53 AM 2.1 °F -5.4 °F -1.7 °F 84% 30.19 in 4.0 mi WSW 3.5 mph - N/A   Clear
1:05 AM 3.2 °F -4.2 °F -2.2 °F 78% 30.18 in 3.0 mi SW 3.5 mph - N/A   Clear
1:25 AM 5.0 °F - 1.4 °F 85% 30.19 in 2.5 mi Calm Calm - N/A   Clear
1:45 AM 1.4 °F -6.2 °F -2.2 °F 85% 30.18 in 2.5 mi SSW 3.5 mph - N/A   Clear
2:05 AM 3.2 °F -4.2 °F -0.4 °F 85% 30.18 in 3.0 mi SW 3.5 mph - N/A   Clear
2:25 AM 6.8 °F -0.1 °F 3.2 °F 85% 30.18 in 4.0 mi SW 3.5 mph - N/A   Clear
2:45 AM 5.0 °F - 1.4 °F 85% 30.18 in 4.0 mi Calm Calm - N/A   Clear
3:05 AM 5.0 °F -4.1 °F -0.4 °F 78% 30.19 in 5.0 mi SW 4.6 mph - N/A   Clear
3:25 AM 3.2 °F - -0.4 °F 85% 30.17 in 5.0 mi Calm Calm - N/A   Clear
3:45 AM -0.4 °F - -5.8 °F 78% 30.17 in 5.0 mi Calm Calm - N/A   Clear
4:05 AM 1.4 °F - -2.2 °F 85% 30.17 in 5.0 mi Calm Calm - N/A   Clear
4:25 AM 5.0 °F -4.1 °F 1.4 °F 85% 30.17 in 5.0 mi SSW 4.6 mph - N/A   Clear
4:45 AM 1.4 °F - -2.2 °F 85% 30.16 in 5.0 mi Calm Calm - N/A   Clear
5:05 AM 5.0 °F - 1.4 °F 85% 30.16 in 4.0 mi Calm Calm - N/A   Clear
5:25 AM -0.4 °F - -4.0 °F 85% 30.16 in 4.0 mi Calm Calm - N/A   Clear
5:45 AM 1.4 °F - -4.0 °F 78% 30.17 in 4.0 mi Calm Calm - N/A   Clear
6:05 AM 1.4 °F -6.2 °F -2.2 °F 85% 30.17 in 5.0 mi SW 3.5 mph - N/A   Clear
6:25 AM 1.4 °F -6.2 °F -2.2 °F 85% 30.17 in 7.0 mi WSW 3.5 mph - N/A   Clear
7:05 AM 3.2 °F -4.2 °F -2.2 °F 78% 30.18 in 7.0 mi SW 3.5 mph - N/A   Clear
7:25 AM 5.0 °F -5.6 °F 1.4 °F 85% 30.19 in 10.0 mi SW 5.8 mph - N/A   Mostly Cloudy
7:41 AM 9.9 °F 0.2 °F 7.2 °F 89% 30.18 in 10.0 mi SW 5.8 mph - N/A   Mostly Cloudy
7:54 AM 6.8 °F -0.1 °F 2.8 °F 84% 30.18 in 10.0 mi WSW 3.5 mph - N/A   Scattered Clouds
8:14 AM 7.2 °F -3.0 °F 3.6 °F 85% 30.18 in 10.0 mi SW 5.8 mph - N/A   Clear
8:34 AM 7.7 °F -2.4 °F 4.5 °F 87% 30.18 in 10.0 mi SW 5.8 mph - N/A   Clear
8:54 AM 10.2 °F -0.6 °F 7.0 °F 87% 30.18 in 10.0 mi SW 6.9 mph - N/A   Clear
9:14 AM 11.1 °F -0.6 °F 7.3 °F 85% 30.18 in 10.0 mi SW 8.1 mph - N/A   Clear
9:34 AM 13.1 °F 1.8 °F 8.6 °F 82% 30.19 in 10.0 mi SW 8.1 mph - N/A   Clear
9:54 AM 14.9 °F 4.0 °F 8.6 °F 76% 30.19 in 10.0 mi SW 8.1 mph - N/A   Clear
10:13 AM 18.3 °F 5.9 °F 8.4 °F 65% 30.18 in 10.0 mi WSW 11.5 mph - N/A   Clear
10:34 AM 21.4 °F 9.1 °F 7.7 °F 56% 30.19 in 10.0 mi WSW 12.7 mph - N/A   Clear
10:54 AM 22.8 °F 9.9 °F 6.8 °F 50% 30.19 in 10.0 mi WSW 15.0 mph - N/A   Clear
11:13 AM 23.7 °F 11.0 °F 7.5 °F 50% 30.18 in 10.0 mi WSW 15.0 mph - N/A   Clear
11:34 AM 24.8 °F 12.9 °F 7.2 °F 47% 30.18 in 10.0 mi WSW 13.8 mph - N/A   Clear
11:54 AM 25.9 °F 16.0 °F 8.6 °F 48% 30.18 in 10.0 mi West 10.4 mph - N/A   Clear
12:13 PM 26.6 °F 15.2 °F 9.3 °F 48% 30.17 in 10.0 mi West 13.8 mph - N/A   Clear
12:34 PM 27.5 °F 18.0 °F 10.9 °F 50% 30.16 in 10.0 mi WSW 10.4 mph - N/A   Clear
12:54 PM 28.4 °F 18.5 °F 12.0 °F 50% 30.16 in 10.0 mi West 11.5 mph - N/A   Scattered Clouds
1:13 PM 29.1 °F 19.4 °F 13.8 °F 53% 30.16 in 10.0 mi West 11.5 mph - N/A   Mostly Cloudy
1:34 PM 28.9 °F 18.2 °F 16.2 °F 59% 30.15 in 10.0 mi West 13.8 mph 18.4 mph N/A   Overcast
1:54 PM 29.1 °F 16.7 °F 18.9 °F 66% 30.16 in 10.0 mi WNW 18.4 mph 25.3 mph N/A   Overcast
2:13 PM 27.9 °F 17.3 °F 19.2 °F 70% 30.17 in 10.0 mi West 12.7 mph 21.9 mph N/A   Overcast
2:34 PM 28.2 °F 16.3 °F 18.9 °F 68% 30.17 in 10.0 mi West 16.1 mph - N/A   Scattered Clouds
2:54 PM 28.2 °F 16.8 °F 19.0 °F 68% 30.17 in 10.0 mi West 15.0 mph - N/A   Clear
3:13 PM 28.4 °F 16.6 °F 19.4 °F 69% 30.17 in 10.0 mi West 16.1 mph - N/A   Scattered Clouds
3:34 PM 28.0 °F 18.6 °F 20.3 °F 73% 30.18 in 10.0 mi West 10.4 mph - N/A   Mostly Cloudy
3:54 PM 27.9 °F 20.6 °F 20.1 °F 73% 30.18 in 10.0 mi WSW 6.9 mph - N/A   Mostly Cloudy
4:54 PM 26.1 °F 16.8 °F 19.4 °F 76% 30.20 in 10.0 mi WSW 9.2 mph - N/A   Mostly Cloudy
5:14 PM 26.6 °F 16.8 °F 20.1 °F 77% 30.20 in 10.0 mi WSW 10.4 mph - N/A   Overcast
5:34 PM 26.6 °F 16.8 °F 20.1 °F 77% 30.20 in 10.0 mi WSW 10.4 mph - N/A   Overcast
5:54 PM 26.6 °F 17.5 °F 20.3 °F 77% 30.21 in 10.0 mi West 9.2 mph - N/A   Overcast
6:14 PM 27.3 °F 19.1 °F 20.7 °F 76% 30.22 in 10.0 mi West 8.1 mph - N/A   Overcast
6:34 PM 27.3 °F 20.9 °F 20.8 °F 77% 30.22 in 10.0 mi West 5.8 mph - N/A   Overcast
6:54 PM 27.3 °F 19.9 °F 20.8 °F 77% 30.23 in 10.0 mi West 6.9 mph - N/A   Overcast
7:14 PM 27.5 °F 19.3 °F 21.0 °F 77% 30.23 in 10.0 mi West 8.1 mph - N/A   Overcast
7:34 PM 27.5 °F 17.4 °F 21.0 °F 77% 30.23 in 10.0 mi West 11.5 mph - N/A   Overcast
7:54 PM 27.5 °F 18.6 °F 21.0 °F 77% 30.23 in 10.0 mi West 9.2 mph - N/A   Overcast
8:14 PM 27.5 °F 18.0 °F 21.2 °F 77% 30.24 in 10.0 mi West 10.4 mph - N/A   Overcast
8:34 PM 27.5 °F 16.8 °F 21.2 °F 77% 30.24 in 10.0 mi West 12.7 mph - N/A   Overcast
8:54 PM 27.9 °F 17.3 °F 21.2 °F 76% 30.24 in 10.0 mi West 12.7 mph - N/A   Overcast
9:14 PM 28.0 °F 18.6 °F 21.0 °F 75% 30.25 in 10.0 mi West 10.4 mph - N/A   Overcast
9:33 PM 27.9 °F 18.4 °F 21.2 °F 76% 30.25 in 10.0 mi West 10.4 mph - N/A   Overcast
9:54 PM 28.0 °F 17.5 °F 21.0 °F 75% 30.25 in 10.0 mi West 12.7 mph - N/A   Overcast
10:14 PM 28.2 °F 17.2 °F 20.5 °F 73% 30.25 in 10.0 mi WNW 13.8 mph 20.7 mph N/A   Overcast
10:33 PM 28.2 °F 18.9 °F 20.5 °F 73% 30.25 in 10.0 mi West 10.4 mph - N/A   Overcast
10:54 PM 28.0 °F 19.3 °F 20.5 °F 73% 30.25 in 10.0 mi West 9.2 mph - N/A   Overcast
11:14 PM 28.0 °F 20.0 °F 21.0 °F 75% 30.25 in 10.0 mi West 8.1 mph - N/A   Overcast
11:33 PM 28.0 °F 20.0 °F 21.2 °F 76% 30.25 in 10.0 mi West 8.1 mph - N/A   Overcast
11:54 PM 28.0 °F 20.8 °F 21.6 °F 77% 30.24 in 10.0 mi West 6.9 mph - N/A   Overcast